Location: Boursonne
(49.2024°N, 3.0468°E)
Time: 01:50:14
(UTC+00:00)

DMSP B5D2-2 - Pass Details

Date: 03 March 2021
Orbit: 789 x 806 km, 98.3° (Epoch: 17 April)

Event Time Altitude Azimuth Distance (km) Brightness Sun altitude
Rises 19:46:25 0° 11° (NNE) 3,314 7.4 -22.2°
Reaches altitude 10° 19:48:47 10° 9° (N) 2,377 6.6 -22.5°
Maximum altitude 19:53:58 65° 289° (WNW) 873 4.4 -23.3°
Drops below altitude 10° 19:59:06 10° 208° (SSW) 2,351 6.6 -24.1°
Sets 20:01:26 0° 206° (SSW) 3,275 7.3 -24.5°
